Change the Weather History Date:

Thursday, July 10, 2014

  Actual Average Record
Temperature  
Mean Temperature 82 °F -  
Max Temperature 95 °F 96 °F 95 °F (2013)
Min Temperature 68 °F 64 °F 66 °F (2013)
Cooling Degree Days 16    
Growing Degree Days 32 (Base 50)    
Moisture  
Dew Point 54 °F    
Average Humidity 43    
Maximum Humidity 68    
Minimum Humidity 19    
Precipitation  
Precipitation 0.01 in - - ()
Sea Level Pressure  
Sea Level Pressure 30.04 in    
Wind  
Wind Speed 6 mph (West)    
Max Wind Speed 24 mph    
Max Gust Speed 29 mph    
Visibility 10 miles    
Events Rain , Thunderstorm    
Averages and records for this station are not official NWS values.
T = Trace of Precipitation, MM = Missing Value Source: NWS Daily Summary

Daily Weather History Graph

Daily Weather History Graph

Search for Another Location

Airport or City:

Trip Planner

Search our weather history database for the weather conditions in past years. The results will help you decide how hot, cold, wet, or windy it might be!

Date:

Astronomy

Jul. 10, 2014 Rise Set
Actual Time 6:15 AM MDT 8:24 PM MDT
Civil Twilight 5:47 AM MDT 8:52 PM MDT
Nautical Twilight 5:13 AM MDT 9:26 PM MDT
Astronomical Twilight 4:36 AM MDT 10:03 PM MDT
Moon 6:43 PM MDT (7/10) 4:26 AM MDT (7/10)
Length of Visible Light 15h 04m
Length of Day
14h 08m
Waxing Gibbous, 96% of the Moon is Illuminated
Jul 10
Waxing Gibbous
Jul 12
Full
Jul 18
Last Quarter
Jul 26
New
Aug 3
First Quarter

Hourly Weather History & Observations

Time (MDT) Temp. Heat Index Dew Point Humidity Pressure Visibility Wind Dir Wind Speed Gust Speed Precip Events Conditions
12:15 AM 73.4 °F - 59.0 °F 61% 30.10 in 10.0 mi NNW 3.5 mph - N/A   Mostly Cloudy
12:35 AM 73.4 °F - 59.0 °F 61% 30.09 in 10.0 mi West 4.6 mph - N/A   Scattered Clouds
12:55 AM 73.4 °F - 57.2 °F 57% 30.08 in 10.0 mi West 5.8 mph - N/A   Clear
1:15 AM 71.6 °F - 57.2 °F 60% 30.08 in 10.0 mi West 5.8 mph - N/A   Clear
1:35 AM 71.6 °F - 57.2 °F 60% 30.07 in 10.0 mi West 5.8 mph - N/A   Clear
1:55 AM 71.6 °F - 57.2 °F 60% 30.07 in 10.0 mi West 5.8 mph - N/A   Clear
2:15 AM 69.8 °F - 59.0 °F 68% 30.07 in 10.0 mi Calm Calm - N/A   Clear
2:35 AM 69.8 °F - 59.0 °F 68% 30.06 in 10.0 mi West 4.6 mph - N/A   Clear
2:55 AM 69.8 °F - 57.2 °F 64% 30.06 in 10.0 mi West 6.9 mph - N/A   Clear
3:15 AM 69.8 °F - 57.2 °F 64% 30.05 in 10.0 mi West 6.9 mph - N/A   Clear
3:35 AM 69.8 °F - 57.2 °F 64% 30.05 in 10.0 mi West 5.8 mph - N/A   Clear
3:55 AM 69.8 °F - 55.4 °F 60% 30.06 in 10.0 mi West 8.1 mph - N/A   Clear
4:15 AM 69.8 °F - 57.2 °F 64% 30.05 in 10.0 mi West 6.9 mph - N/A   Scattered Clouds
4:35 AM 69.8 °F - 57.2 °F 64% 30.05 in 10.0 mi West 8.1 mph - N/A   Clear
4:55 AM 68.0 °F - 57.2 °F 68% 30.05 in 10.0 mi West 9.2 mph - N/A   Clear
5:15 AM 68.0 °F - 55.4 °F 64% 30.06 in 10.0 mi West 8.1 mph - N/A   Clear
5:35 AM 68.0 °F - 57.2 °F 68% 30.06 in 10.0 mi West 8.1 mph - N/A   Clear
5:55 AM 68.0 °F - 55.4 °F 64% 30.06 in 10.0 mi West 8.1 mph - N/A   Clear
6:15 AM 68.0 °F - 55.4 °F 64% 30.07 in 10.0 mi WSW 5.8 mph - N/A   Clear
6:35 AM 68.0 °F - 57.2 °F 68% 30.07 in 10.0 mi West 6.9 mph - N/A   Clear
6:55 AM 68.0 °F - 57.2 °F 68% 30.08 in 10.0 mi West 6.9 mph - N/A   Clear
7:15 AM 69.8 °F - 57.2 °F 64% 30.08 in 10.0 mi West 4.6 mph - N/A   Clear
7:35 AM 71.6 °F - 55.4 °F 57% 30.08 in 10.0 mi WNW 8.1 mph - N/A   Clear
7:55 AM 73.4 °F - 55.4 °F 53% 30.10 in 10.0 mi WNW 6.9 mph - N/A   Clear
8:15 AM 73.4 °F - 55.4 °F 53% 30.10 in 10.0 mi WNW 5.8 mph - N/A   Clear
8:35 AM 75.2 °F - 55.4 °F 50% 30.10 in 10.0 mi WNW 8.1 mph - N/A   Clear
8:55 AM 77.0 °F - 55.4 °F 47% 30.10 in 10.0 mi WNW 8.1 mph - N/A   Clear
9:15 AM 77.0 °F - 55.4 °F 47% 30.11 in 10.0 mi West 4.6 mph - N/A   Clear
9:35 AM 78.8 °F - 55.4 °F 44% 30.11 in 10.0 mi West 5.8 mph - N/A   Clear
9:55 AM 78.8 °F - 55.4 °F 44% 30.11 in 10.0 mi West 10.4 mph - N/A   Clear
10:15 AM 80.6 °F 80.5 °F 55.4 °F 42% 30.11 in 10.0 mi WNW 3.5 mph - N/A   Clear
10:35 AM 80.6 °F 80.5 °F 55.4 °F 42% 30.10 in 10.0 mi West 5.8 mph - N/A   Clear
10:55 AM 82.4 °F 81.7 °F 55.4 °F 39% 30.10 in 10.0 mi NW 6.9 mph - N/A   Clear
11:15 AM 84.2 °F 82.8 °F 53.6 °F 35% 30.09 in 10.0 mi North 4.6 mph - N/A   Clear
11:35 AM 84.2 °F 82.8 °F 53.6 °F 35% 30.08 in 10.0 mi West 5.8 mph - N/A   Clear
11:55 AM 86.0 °F 84.2 °F 53.6 °F 33% 30.08 in 10.0 mi WSW 4.6 mph - N/A   Clear
12:15 PM 86.0 °F 84.2 °F 53.6 °F 33% 30.07 in 10.0 mi West 6.9 mph - N/A   Clear
12:35 PM 87.8 °F 85.7 °F 53.6 °F 31% 30.07 in 10.0 mi Calm Calm - N/A   Clear
12:55 PM 87.8 °F - 51.8 °F 29% 30.06 in 10.0 mi WNW 3.5 mph - N/A   Clear
1:15 PM 89.6 °F - 51.8 °F 27% 30.05 in 10.0 mi SSW 5.8 mph - N/A   Clear
1:35 PM 89.6 °F - 51.8 °F 27% 30.04 in 10.0 mi West 5.8 mph - N/A   Clear
1:55 PM 91.4 °F - 51.8 °F 26% 30.03 in 10.0 mi Calm Calm - N/A   Clear
2:15 PM 89.6 °F - 50.0 °F 26% 30.01 in 10.0 mi WNW 6.9 mph - N/A   Clear
2:35 PM 91.4 °F - 46.4 °F 21% 30.01 in 10.0 mi NNE 3.5 mph - N/A   Clear
2:55 PM 89.6 °F - 50.0 °F 26% 29.99 in 10.0 mi Calm Calm - N/A   Clear
3:15 PM 91.4 °F - 50.0 °F 24% 29.99 in 10.0 mi Calm Calm - N/A   Scattered Clouds
3:35 PM 91.4 °F - 50.0 °F 24% 29.98 in 10.0 mi Calm Calm - N/A   Clear
3:55 PM 93.2 °F - 50.0 °F 23% 29.97 in 10.0 mi South 3.5 mph - N/A   Clear
4:15 PM 95.0 °F - 48.2 °F 20% 29.97 in 10.0 mi South 6.9 mph - N/A   Clear
4:35 PM 95.0 °F - 46.4 °F 19% 29.96 in 10.0 mi NE 4.6 mph - N/A   Clear
4:55 PM 93.2 °F - 46.4 °F 20% 29.95 in 10.0 mi SE 4.6 mph - N/A   Scattered Clouds
5:15 PM 93.2 °F - 46.4 °F 20% 29.95 in 10.0 mi Calm Calm - N/A   Mostly Cloudy
5:35 PM 95.0 °F - 46.4 °F 19% 29.95 in 10.0 mi West 5.8 mph - N/A   Scattered Clouds
5:55 PM 95.0 °F - 46.4 °F 19% 29.94 in 10.0 mi West 5.8 mph - N/A   Scattered Clouds
6:15 PM 93.2 °F - 46.4 °F 20% 29.94 in 10.0 mi Calm Calm - N/A   Mostly Cloudy
6:35 PM 93.2 °F - 46.4 °F 20% 29.94 in 10.0 mi West 8.1 mph - N/A   Overcast
6:55 PM 93.2 °F - 48.2 °F 21% 29.94 in 10.0 mi WSW 8.1 mph 17.3 mph N/A   Overcast
7:15 PM 93.2 °F - 48.2 °F 21% 29.94 in 10.0 mi West 16.1 mph 20.7 mph N/A   Scattered Clouds
7:35 PM 91.4 °F - 48.2 °F 23% 29.95 in 10.0 mi West 12.7 mph 18.4 mph N/A   Scattered Clouds
8:15 PM 89.6 °F - 48.2 °F 24% 29.98 in 10.0 mi NNW 12.7 mph - N/A   Overcast
8:35 PM 86.0 °F - 48.2 °F 27% 30.00 in 10.0 mi North 10.4 mph - N/A   Overcast
8:55 PM 86.0 °F - 50.0 °F 29% 30.01 in 10.0 mi NNE 8.1 mph - N/A   Overcast
9:15 PM 84.2 °F - 51.8 °F 33% 30.01 in 10.0 mi NE 15.0 mph - N/A Thunderstorm Overcast
9:35 PM 78.8 °F - 55.4 °F 44% 30.03 in 10.0 mi SE 13.8 mph 28.8 mph N/A Rain , Thunderstorm Light Thunderstorms and Rain
9:55 PM 78.8 °F - 53.6 °F 42% 30.02 in 10.0 mi West 6.9 mph 19.6 mph 0.01 in Rain , Thunderstorm Thunderstorms and Rain
10:15 PM 77.0 °F - 53.6 °F 44% 30.04 in 10.0 mi WNW 24.2 mph 28.8 mph N/A Thunderstorm Thunderstorm
10:35 PM 73.4 °F - 55.4 °F 53% 30.06 in 10.0 mi NW 16.1 mph 23.0 mph N/A Thunderstorm Thunderstorm
11:15 PM 71.6 °F - 57.2 °F 60% 30.06 in 10.0 mi West 19.6 mph 24.2 mph N/A Thunderstorm Mostly Cloudy
11:35 PM 71.6 °F - 57.2 °F 60% 30.06 in 10.0 mi West 18.4 mph - N/A Thunderstorm Mostly Cloudy
11:55 PM 71.6 °F - 59.0 °F 64% 30.07 in 10.0 mi WNW 15.0 mph 20.7 mph N/A   Mostly Cloudy